Regional Weather Roundup
Issued by NWS

Home | Current Version | Previous Version | Graphics & Text | Print | Product List | Glossary On
Versions: 1 2 3 4 5 6 7 8 9 10 11 12 13 14 15 16 17 18 19 20 21 22 23 24 25 26 27 28 29 30 31 32 33 34 35 36 37 38 39 40 41 42 43 44 45 46 47 48 49 50
000
ASUS43 KLOT 101208
RWRIL

ILLINOIS REGIONAL WEATHER ROUNDUP
NATIONAL WEATHER SERVICE CHICAGO/ROMEOVILLE IL
600 AM CST SAT DEC 10 2016

NOTE: "FAIR" INDICATES FEW OR NO CLOUDS BELOW 12,000 FEET WITH NO
SIGNIFICANT WEATHER AND/OR OBSTRUCTIONS TO VISIBILITY.

* THESE STATIONS ARE NOT UNDER NWS QUALITY CONTROL. THEY ALSO MAY NOT
  REPORT WEATHER SUCH AS PRECIPITATION OR FOG.

ILZ001-002-007-009-015-016-024-101300-
NORTHWEST ILLINOIS

CITY           SKY/WX    TMP DP  RH WIND       PRES   REMARKS
MOLINE         CLOUDY    21  14  74 SW5       30.54R WCI  15
6HR MIN TEMP:  20; 6HR MAX TEMP:  21;

STERLING*      CLOUDY    19  15  84 SW3       30.52F
SAVANNA*       CLEAR     19  14  83 W5        30.52S WCI  12
$$

ILZ003-004-008-010-011-017-018-101300-
NORTH CENTRAL ILLINOIS

CITY           SKY/WX    TMP DP  RH WIND       PRES   REMARKS
ROCKFORD       CLOUDY    18  13  80 W5        30.52S WCI  11
6HR MIN TEMP:  17; 6HR MAX TEMP:  18; 6HR PCP: TRACE;

FREEPORT*      CLOUDY    16  13  87 W3        30.51S
ROCHELLE*      CLOUDY    18  14  86 W6        30.51F WCI  10
DE KALB*       CLOUDY    18  13  82 W6        30.50F WCI   9
$$

ILZ005-006-012>014-019>023-101300-
NORTHEAST ILLINOIS

CITY           SKY/WX    TMP DP  RH WIND       PRES   REMARKS
CHICAGO-OHARE  MOCLDY    18  12  77 W8        30.50S WCI   8
6HR MIN TEMP:  18; 6HR MAX TEMP:  19;

CHICAGO-MIDWAY CLOUDY    21  11  65 W10       30.52R WCI  10
6HR MIN TEMP:  20; 6HR MAX TEMP:  21; 6HR PCP: TRACE;

AURORA         CLOUDY    19  13  77 SW5       30.51F WCI  12
6HR MIN TEMP:  16; 6HR MAX TEMP:  20;

LANSING*       CLOUDY    20  17  85 W8        30.53R WCI  11
JOLIET*        CLOUDY    22  15  77 W6        30.53S WCI  14
WAUKEGAN       MOCLDY    18  12  77 VRB5      30.48S WCI  11
6HR MIN TEMP:  18; 6HR MAX TEMP:  19;

DUPAGE AIRPORT CLOUDY    18  11  74 W7        30.50S WCI   9
6HR MIN TEMP:  17; 6HR MAX TEMP:  19; 6HR PCP: TRACE;

KANKAKEE*      CLOUDY    22  16  77 CALM      30.55R
WHEELING       CLOUDY    18  12  77 W6        30.52R WCI  10
6HR MIN TEMP:  18; 6HR MAX TEMP:  19;

MORRIS*        CLOUDY    20  15  81 W5        30.53S WCI  14
ROMEOVILLE*    CLOUDY    19  17  89 W9        30.52S WCI   8
NORTHERLY ISL    N/A     21  13  71 W8          N/A  WCI  12
$$

LMZ740>746-101300-
SOUTHERN LAKE MICHIGAN

STATION/POSITION SKY/WX   TEMP    WIND        PRES    VSBY  WAVE
                          AIR SEA DIR/SP/G                  HT/PER
                          (F)     (DEG/KT/KT) (MB)    (MI)  (FT/S)
BURNHAM HARBOR             21     250/ 10/ 11   N/A
CALUMET HARBOR             20     230/  9/ 12 1032.6R
BURNS HARBOR               22     230/ 10/ 16 1033.5S
$$

ILZ025>027-034>036-040-047-049-050-058-095>099-101300-
WEST-CENTRAL ILLINOIS

CITY           SKY/WX    TMP DP  RH WIND       PRES   REMARKS
QUINCY         CLOUDY    23  15  71 S5        30.54R WCI  17
GALESBURG*     CLOUDY    21  17  84 CALM      30.54R
MACOMB*        CLOUDY    22  18  81 CALM      30.56S
JACKSONVILLE*  CLOUDY    23  16  74 CALM      30.56R
PITTSFIELD*    CLOUDY    24  19  81 S3        30.56R
$$

ILZ028>032-037-038-041>044-048-051>054-059>061-101300-
CENTRAL ILLINOIS

CITY           SKY/WX    TMP DP  RH WIND       PRES   REMARKS
PONTIAC        CLOUDY    22  16  78 W7        30.54F WCI  14
BLOOMINGTON    CLOUDY    21  15  78 W6        30.54S WCI  13
DECATUR        CLOUDY    22  16  78 SW5       30.56S WCI  16
PEORIA         CLOUDY    22  14  71 CALM      30.55S
6HR MIN TEMP:  21; 6HR MAX TEMP:  22;

LACON*         CLOUDY    21  14  74 W3        30.54S
LINCOLN*       CLOUDY    23  17  77 CALM      30.56S
SPRINGFIELD    CLOUDY    24  16  71 CALM      30.56F
6HR MIN TEMP:  24; 6HR MAX TEMP:  24;

TAYLORVILLE    CLOUDY    23  17  79 CALM      30.56F
6HR MIN TEMP:  22; 6HR MAX TEMP:  23;

$$

ILZ033-039-045-046-055>057-062-063-101300-
EAST-CENTRAL ILLINOIS

CITY           SKY/WX    TMP DP  RH WIND       PRES   REMARKS
CHAMPAIGN      CLOUDY    22  15  75 W7        30.55S WCI  13
RANTOUL*       CLOUDY    24  18  78 W5        30.55S WCI  18
MATTOON        CLOUDY    22  16  78 SW3       30.56R
PARIS*         CLOUDY    22  18  85 W6        30.57S WCI  15
$$

ILZ079-100>102-101300-
SOUTHWEST ILLINOIS

CITY           SKY/WX    TMP DP  RH WIND       PRES   REMARKS
ALTON          CLOUDY    24  18  77 CALM      30.58F
BELLEVILLE     CLOUDY    24  21  87 CALM      30.57S
CAHOKIA*       CLOUDY    26  17  68 CALM      30.58S
SPARTA*        CLOUDY    24  20  82 CALM      30.60R
$$

ILZ064>066-069>071-074>076-080>082-084>086-088>090-092>094-101300-
SOUTH-CENTRAL ILLINOIS

CITY           SKY/WX    TMP DP  RH WIND       PRES   REMARKS
CARBONDALE     PTCLDY    22  19  89 CALM      30.60R
6HR MIN TEMP:  16; 6HR MAX TEMP:  23;

CAIRO*         CLEAR     17  15  95 CALM      30.60F
EFFINGHAM*     CLOUDY    24  19  83 W3        30.59F
MARION         CLOUDY    23  21  93 CALM      30.61R
CENTRALIA*     CLOUDY    25  20  83 CALM      30.59R
SALEM*         CLOUDY    25  19  76 SW3       30.59R
METROPOLIS*    CLEAR     15  13  92 CALM      30.61S
$$

ILZ067-068-072-073-078-083-087-091-101300-
SOUTHEAST ILLINOIS

CITY           SKY/WX    TMP DP  RH WIND       PRES   REMARKS
LAWRENCEVILLE  CLOUDY    23  18  81 W3        30.60S
FLORA*         CLOUDY    25  20  80 CALM      30.60S
FAIRFIELD*     CLOUDY    24  20  86 CALM      30.59S
HARRISBURG*    CLOUDY    24  21  88 CALM      30.61R
ROBINSON*      CLOUDY    22  18  81 W5        30.60S WCI  16
CARMI*         CLOUDY    24  19  83 CALM      30.60S
$$

ABBREVIATIONS USED IN REMARKS
   TC - TEMPERATURE IN CELSIUS
  WCI - WIND CHILL INDEX
   HX - HEAT INDEX
  VSB - VISIBILITY
$$




USA.gov is the U.S. government's official web portal to all federal, state and local government web resources and services.